Regional Weather Roundup
Issued by NWS Sioux Falls, SD

Home | Current Version | Previous Version | Graphics & Text | Print | Product List | Glossary On
Versions: 1 2 3 4 5 6 7 8 9 10 11 12 13 14 15 16 17 18 19 20 21 22 23 24 25 26 27 28 29 30 31 32 33 34 35 36 37 38 39 40 41 42 43 44 45 46 47 48 49 50
000
ASUS43 KFSD 031110
RWRFSD

WEATHER ROUNDUP FOR SE SOUTH DAKOTA/SW MINNESOTA/NW IOWA
NATIONAL WEATHER SERVICE SIOUX FALLS SD
600 AM CDT FRI JUL 03 2015

NOTE: "FAIR" INDICATES FEW OR NO CLOUDS BELOW 12,000 FEET WITH NO
SIGNIFICANT WEATHER AND OR OBSTRUCTIONS TO VISIBILITY.


SDZ038>040-050-052>070-031200-
SOUTHEAST SOUTH DAKOTA

CITY           SKY/WX    TMP DP  RH WIND       PRES   REMARKS
BROOKINGS      CLEAR     52  48  87 CALM      30.03S
CHAMBERLAIN    FOG       62  62 100 CALM      30.00S VSB<1/4
HURON          FOG       58  58 100 CALM      29.99S VSB 1/4
MADISON        FAIR      54  54 100 SW3       30.02R
MITCHELL       FOG       61  61 100 CALM      30.01R VSB 1/4
SIOUX FALLS    FOG       52  51  97 CALM      30.01S VSB 1/4
WINNER         LGT RAIN  62  59  90 SW3       30.02S FOG
YANKTON        MOCLDY    57  55  94 NE3       30.00R VSB 1/4
$$

MNZ071-072-080-081-089-090-097-098-031200-
SOUTHWEST MINNESOTA

CITY           SKY/WX    TMP DP  RH WIND       PRES   REMARKS
FAIRMONT       CLEAR     55  46  71 CALM      30.00S
JACKSON        CLEAR     52  52 100 CALM      30.01F
LUVERNE        CLOUDY    52  50  93 CALM      30.02S VSB<1/4
MARSHALL       CLEAR     55  48  76 W7        29.98S
MONTEVIDEO     CLEAR     54  50  87 W3        29.99S
PIPESTONE      CLEAR     54  52  94 CALM      30.01S FOG
REDWOOD FALLS  CLEAR     53  49  86 W3        29.99R
TRACY          CLEAR     55  53  91 SW6       30.00S
WINDOM         CLEAR     52  48  87 CALM      30.01S
WORTHINGTON      N/A     54  48  82 SW5       30.02S VSB<1/4
$$

IAZ001>003-012>014-020>022-031-032-NEZ013-014-SDZ071-031200-
NORTHWEST IOWA

CITY           SKY/WX    TMP DP  RH WIND       PRES   REMARKS
CHEROKEE       FOG       49  49 100 CALM      30.01S VSB<1/4
DENISON        PTCLDY    54  54 100 CALM      29.99S
ESTHERVILLE    CLEAR     47  47 100 W5        30.01S
LE MARS        FOG       52  52 100 CALM      30.02S VSB<1/4
ORANGE CITY    MOCLDY    52  52 100 CALM      30.02R FOG
SHELDON        FOG       46  46 100 CALM      30.01R VSB<1/4
SIOUX CITY     FOG       53  50  89 CALM      30.01S VSB 1/4
SPENCER        FOG       46  44  93 W3        30.02S VSB 1/4
STORM LAKE     CLEAR     54  54 100 N3        30.02S FOG
$$

ABBREVIATIONS USED IN REMARKS
   TC - TEMPERATURE IN CELSIUS
  WCI - WIND CHILL INDEX
   HX - HEAT INDEX
  VSB - VISIBILITY




USA.gov is the U.S. government's official web portal to all federal, state and local government web resources and services.